Regional Weather Roundup
Issued by NWS

Home | Current Version | Previous Version | Graphics & Text | Print | Product List | Glossary On
Versions: 1 2 3 4 5 6 7 8 9 10 11 12 13 14 15 16 17 18 19 20 21 22 23 24 25 26 27 28
000
ASUS45 KBOI 240610
RWRID

IDAHO REGIONAL WEATHER ROUNDUP
NATIONAL WEATHER SERVICE BOISE ID
1200 AM MDT SUN SEP 24 2017

NOTE: "FAIR" INDICATES FEW OR NO CLOUDS BELOW 12000 FEET
WITH NO SIGNIFICANT WEATHER AND/OR OBSTRUCTIONS TO VISIBILITY

IDZ012-014-240700-
SOUTHWEST IDAHO


CITY           SKY/WX    TMP DP  RH WIND       PRES   REMARKS
BOISE          CLEAR     47  34  60 NW6       30.01R
CALDWELL       CLEAR     45  37  73 W8        30.03S
MOUNTAIN HOME  CLEAR     42  35  76 NW8       30.00S
$$

IDZ016-017-240700-
SOUTHCENTRAL IDAHO


CITY           SKY/WX    TMP DP  RH WIND       PRES   REMARKS
BURLEY         CLOUDY    44  36  73 SW5       30.00R
JEROME         PTCLDY    43  36  76 SW7       30.01S
TWIN FALLS     MOCLDY    43  35  73 SW10      30.01S
$$

IDZ019>023-240700-
SOUTHEAST IDAHO


CITY           SKY/WX    TMP DP  RH WIND       PRES   REMARKS
IDAHO FALLS    CLEAR     38  32  79 N8        30.00S WCI  32
POCATELLO      PTCLDY    39  34  82 NW3       30.01R
REXBURG        CLOUDY    40  32  73 CALM      29.99F
$$

IDZ006-010-011-018-031-032-240700-
CENTRAL IDAHO MOUNTAINS


CITY           SKY/WX    TMP DP  RH WIND       PRES   REMARKS
MCCALL         CLEAR     39  30  70 N6        30.06S WCI  35
HAILEY         CLEAR     34  30  86 W7        30.04S WCI  28
STANLEY          N/A     29  26  89 CALM      30.08R
SALMON         CLOUDY    43  31  62 S5        30.10R
CHALLIS        CLEAR     35  28  75 N7        30.07R WCI  29
$$

IDZ002-004-006-007-026-240700-
NORTHERN IDAHO


CITY           SKY/WX    TMP DP  RH WIND       PRES   REMARKS
LEWISTON       PTCLDY    49  40  71 SE3       30.10S
LOWELL           N/A     45  42  89 N3        30.15R
COEUR D`ALENE  CLOUDY    53  43  68 S6        30.11R
MULLAN PASS    CLOUDY    34  32  92 NW5       30.12S WCI  30
$$




USA.gov is the U.S. government's official web portal to all federal, state and local government web resources and services.